GALAXY 23 (G-23)

Last updated on Tue Jul 01 2025 00:02:44 GMT+0000 (Coordinated Universal Time)

1 27854U 03034A 25181.51848874 .00000050 00000+0 00000+0 0 9991 2 27854 2.2869 84.0564 0001500 111.1600 109.7661 0.99560109 80218
UTC large
Height (km)
Speed (km/s)
/
Latitude / Longitude
Inclination (degrees)
Orbital Period (minutes)
Azimuth
Elevation
Range (km)
Doppler Factor

Next 0 passes for location: London (51.5072 / 0.1276)

Sorry there are no passes over London.